{"data":{"norad_id":39440,"intl_designator":"2013-066AA","name":"CUBEBUG-2 (LO-74)","alt_names":[],"object_type":"PAYLOAD","status":"ACTIVE","operator":null,"country":"ARGN","launch_date":"2013-11-21","launch_site_code":"DLS","launch_vehicle":null,"mission":null,"orbit_class":"UNKNOWN","rcs_meters":0.1111,"size_class":null,"mass_kg":null,"dimensions":null,"purposes":["comms","tech_demo"],"wikipedia_slug":null,"has_3d_model":false,"image_url":null,"decayed_at":null,"tle_current":{"epoch":"2026-05-24T19:37:01.813440Z","epoch_age_seconds":90511,"freshness":"FRESH","line1":"1 39440U 13066AA  26144.81738210  .00003331  00000+0  31087-3 0  9994","line2":"2 39440  97.8896  93.7028 0059583 104.3887 256.3956 14.93548951673505","mean_motion":14.93548951,"eccentricity":0.0059583,"inclination_deg":97.8896,"raan_deg":93.7028,"arg_perigee_deg":104.3887,"mean_anomaly_deg":256.3956,"bstar":0.00031087,"rev_number":67350,"period_min":96.414650422797,"perigee_km":545.38065451887,"apogee_km":628.37997988101,"semimajor_km":6965.0173171999,"source":"CELESTRAK","updated_at":"2026-05-25T13:38:25.494303Z"}}}